EDW7HD LSZH-LBBG

Flight info

Callsign EDW7HD
Flight time 2h 9m
Altitude 37000
Route DEGES Z2 TUNUM Z204 GEDSO DCT LAKIK DCT MAVIT DCT SODGO DCT RASUB DCT BULEN L742 ESENA
Aircraft A320/M-SDE3FGHIRWY/LB1

Departure

Time 2026-05-08 17:57
Airport Zürich Airport (LSZH)

Arrival

Time 2026-05-08 20:07
Airport Burgas Airport (LBBG)
Time Latitude Longitude Altitude Speed Heading
2026-05-08 17:28 47.45424 8.55803 1402 ft 0 kts 186°
2026-05-08 17:43 47.45445 8.55806 1404 ft 4 kts 190°
2026-05-08 17:43 47.45471 8.55815 1404 ft 4 kts 200°
2026-05-08 17:43 47.45494 8.55833 1407 ft 4 kts 231°
2026-05-08 17:44 47.45501 8.55857 1407 ft 1 kts 277°
2026-05-08 17:44 47.45500 8.55862 1407 ft 0 kts 277°
2026-05-08 17:49 47.45525 8.55840 1404 ft 8 kts 355°
2026-05-08 17:49 47.45575 8.55847 1397 ft 6 kts
2026-05-08 17:49 47.45621 8.55848 1397 ft 9 kts 343°
2026-05-08 17:50 47.45646 8.55753 1404 ft 12 kts 275°
2026-05-08 17:50 47.45653 8.55635 1397 ft 11 kts 276°
2026-05-08 17:50 47.45661 8.55534 1397 ft 9 kts 276°
2026-05-08 17:50 47.45667 8.55452 1397 ft 7 kts 276°
2026-05-08 17:51 47.45672 8.55385 1397 ft 6 kts 276°
2026-05-08 17:51 47.45676 8.55329 1406 ft 6 kts 276°
2026-05-08 17:51 47.45682 8.55255 1397 ft 7 kts 276°
2026-05-08 17:51 47.45694 8.55181 1399 ft 9 kts 298°
2026-05-08 17:52 47.45768 8.55112 1401 ft 16 kts 335°
2026-05-08 17:52 47.45885 8.55033 1399 ft 22 kts 335°
2026-05-08 17:52 47.46174 8.54834 1397 ft 22 kts 334°
2026-05-08 17:53 47.46315 8.54738 1399 ft 23 kts 335°
2026-05-08 17:53 47.46462 8.54635 1399 ft 23 kts 335°
2026-05-08 17:53 47.46616 8.54530 1399 ft 25 kts 335°
2026-05-08 17:53 47.46778 8.54423 1398 ft 26 kts 339°
2026-05-08 17:54 47.46910 8.54341 1396 ft 17 kts 335°
2026-05-08 17:54 47.47005 8.54275 1404 ft 14 kts 335°
2026-05-08 17:54 47.47093 8.54214 1401 ft 16 kts 335°
2026-05-08 17:54 47.47212 8.54133 1405 ft 21 kts 335°
2026-05-08 17:55 47.47355 8.54035 1398 ft 24 kts 335°
2026-05-08 17:55 47.47502 8.53936 1396 ft 21 kts 335°
2026-05-08 17:55 47.47605 8.53826 1404 ft 16 kts 296°
2026-05-08 17:55 47.47595 8.53701 1406 ft 10 kts 245°
2026-05-08 17:56 47.47568 8.53621 1402 ft 8 kts 232°
2026-05-08 17:56 47.47534 8.53618 1399 ft 0 kts 156°
2026-05-08 17:56 47.47518 8.53628 1386 ft 12 kts 155°
2026-05-08 17:57 47.47208 8.53844 1400 ft 85 kts 155°
2026-05-08 17:57 47.46488 8.54339 1397 ft 142 kts 155°
2026-05-08 17:57 47.45476 8.55037 1622 ft 166 kts 154°
2026-05-08 17:57 47.44439 8.55739 2345 ft 165 kts 154°
2026-05-08 17:58 47.43460 8.56621 2940 ft 166 kts 131°
2026-05-08 17:58 47.42894 8.58107 3472 ft 172 kts 100°
2026-05-08 17:58 47.42969 8.59879 3959 ft 178 kts 68°
2026-05-08 17:58 47.43719 8.61373 4441 ft 187 kts 42°
2026-05-08 17:59 47.44695 8.62670 5006 ft 191 kts 43°
2026-05-08 17:59 47.45672 8.64051 5505 ft 198 kts 48°
2026-05-08 17:59 47.46318 8.65873 5972 ft 206 kts 78°
2026-05-08 17:59 47.46405 8.68024 6458 ft 214 kts 89°
2026-05-08 18:00 47.46427 8.70259 6941 ft 222 kts 88°
2026-05-08 18:00 47.46528 8.75152 7575 ft 260 kts 89°
2026-05-08 18:00 47.46568 8.77939 8007 ft 279 kts 88°
2026-05-08 18:01 47.46645 8.80845 8720 ft 287 kts 89°
2026-05-08 18:01 47.46676 8.83809 9491 ft 292 kts 90°
2026-05-08 18:01 47.46704 8.86840 10230 ft 297 kts 90°
2026-05-08 18:01 47.46737 8.89992 10527 ft 319 kts 90°
2026-05-08 18:02 47.46774 8.93395 10839 ft 338 kts 90°
2026-05-08 18:02 47.46798 8.95718 11248 ft 343 kts 90°
2026-05-08 18:02 47.46849 9.00482 12184 ft 350 kts 90°
2026-05-08 18:02 47.46889 9.04050 12885 ft 354 kts 90°
2026-05-08 18:03 47.46929 9.07713 13599 ft 358 kts 90°
2026-05-08 18:03 47.46962 9.11426 14240 ft 363 kts 90°
2026-05-08 18:03 47.46991 9.15161 14855 ft 366 kts 90°
2026-05-08 18:03 47.47020 9.18948 15472 ft 370 kts 90°
2026-05-08 18:04 47.47050 9.22776 16106 ft 373 kts 90°
2026-05-08 18:04 47.47079 9.26625 16732 ft 376 kts 90°
2026-05-08 18:04 47.47099 9.29245 17141 ft 379 kts 90°
2026-05-08 18:04 47.47127 9.33113 17732 ft 383 kts 90°
2026-05-08 18:05 47.47156 9.37065 18314 ft 386 kts 90°
2026-05-08 18:05 47.47183 9.41057 18820 ft 390 kts 90°
2026-05-08 18:05 47.47210 9.45078 19338 ft 393 kts 90°
2026-05-08 18:05 47.47236 9.49140 19867 ft 397 kts 90°
2026-05-08 18:06 47.47257 9.53237 20398 ft 400 kts 90°
2026-05-08 18:06 47.47273 9.57359 20929 ft 403 kts 90°
2026-05-08 18:06 47.47255 9.61520 21447 ft 406 kts 92°
2026-05-08 18:06 47.47117 9.65705 21967 ft 409 kts 95°
2026-05-08 18:07 47.46888 9.69911 22488 ft 412 kts 96°
2026-05-08 18:07 47.46614 9.74155 22985 ft 416 kts 96°
2026-05-08 18:07 47.46327 9.78422 23484 ft 419 kts 96°
2026-05-08 18:07 47.46045 9.82730 23904 ft 423 kts 96°
2026-05-08 18:08 47.45779 9.87078 24308 ft 426 kts 96°
2026-05-08 18:08 47.45528 9.91446 24715 ft 429 kts 96°
2026-05-08 18:08 47.45284 9.95845 25105 ft 432 kts 96°
2026-05-08 18:08 47.45036 10.00296 25488 ft 434 kts 96°
2026-05-08 18:09 47.44786 10.04761 25864 ft 437 kts 96°
2026-05-08 18:09 47.44530 10.09237 26288 ft 438 kts 96°
2026-05-08 18:09 47.44270 10.13729 26657 ft 440 kts 96°
2026-05-08 18:09 47.43982 10.18239 27020 ft 442 kts 99°
2026-05-08 18:10 47.43428 10.22696 27378 ft 443 kts 103°
2026-05-08 18:10 47.42826 10.27179 27754 ft 445 kts 103°
2026-05-08 18:10 47.42220 10.31666 28096 ft 448 kts 103°
2026-05-08 18:10 47.41611 10.36136 28431 ft 450 kts 103°
2026-05-08 18:11 47.40984 10.40735 28773 ft 453 kts 103°
2026-05-08 18:11 47.40370 10.45251 29092 ft 455 kts 104°
2026-05-08 18:11 47.39747 10.49838 29359 ft 457 kts 105°
2026-05-08 18:11 47.39116 10.54452 29608 ft 459 kts 105°
2026-05-08 18:12 47.38479 10.59067 29890 ft 461 kts 105°
2026-05-08 18:12 47.37834 10.63713 30193 ft 463 kts 105°
2026-05-08 18:12 47.37183 10.68391 30430 ft 466 kts 105°
2026-05-08 18:12 47.36529 10.73086 30636 ft 468 kts 105°
2026-05-08 18:13 47.35871 10.77803 30871 ft 470 kts 105°
2026-05-08 18:13 47.35210 10.82532 31059 ft 472 kts 105°
2026-05-08 18:13 47.34545 10.87281 31274 ft 473 kts 105°
2026-05-08 18:13 47.33879 10.92019 31602 ft 472 kts 105°
2026-05-08 18:14 47.33211 10.96758 31920 ft 472 kts 105°
2026-05-08 18:14 47.32540 11.01490 32201 ft 472 kts 105°
2026-05-08 18:14 47.31866 11.06220 32502 ft 472 kts 105°
2026-05-08 18:14 47.31186 11.10953 32793 ft 472 kts 105°
2026-05-08 18:15 47.30506 11.15676 33101 ft 472 kts 104°
2026-05-08 18:15 47.29821 11.20425 33402 ft 472 kts 104°
2026-05-08 18:15 47.29140 11.25162 33676 ft 472 kts 105°
2026-05-08 18:15 47.28470 11.29819 34022 ft 470 kts 105°
2026-05-08 18:16 47.27790 11.34535 34336 ft 469 kts 105°
2026-05-08 18:16 47.27110 11.39224 34581 ft 469 kts 105°
2026-05-08 18:16 47.26425 11.43925 34797 ft 469 kts 105°
2026-05-08 18:16 47.25529 11.48523 35010 ft 466 kts 114°
2026-05-08 18:17 47.24210 11.52851 35209 ft 462 kts 122°
2026-05-08 18:17 47.22513 11.56853 35373 ft 459 kts 129°
2026-05-08 18:17 47.20668 11.60684 35544 ft 460 kts 129°
2026-05-08 18:17 47.18824 11.64532 35726 ft 460 kts 129°
2026-05-08 18:18 47.16989 11.68378 36048 ft 457 kts 129°
2026-05-08 18:18 47.15160 11.72212 36275 ft 457 kts 128°
2026-05-08 18:18 47.13330 11.76039 36471 ft 457 kts 128°
2026-05-08 18:18 47.11526 11.79798 36651 ft 457 kts 128°
2026-05-08 18:19 47.09675 11.83668 36810 ft 458 kts 127°
2026-05-08 18:19 47.08113 11.87697 36981 ft 463 kts 117°
2026-05-08 18:19 47.06055 11.96675 37041 ft 465 kts 109°
2026-05-08 18:20 47.04203 12.05744 37044 ft 465 kts 109°
2026-05-08 18:20 47.02347 12.14814 37051 ft 464 kts 109°
2026-05-08 18:21 47.00462 12.23888 37070 ft 465 kts 109°
2026-05-08 18:21 46.98564 12.32951 37077 ft 466 kts 109°
2026-05-08 18:22 46.96662 12.42007 37079 ft 465 kts 110°
2026-05-08 18:22 46.94763 12.51048 37081 ft 465 kts 110°
2026-05-08 18:23 46.92856 12.60076 37085 ft 464 kts 110°
2026-05-08 18:23 46.90952 12.69041 37088 ft 464 kts 110°
2026-05-08 18:24 46.89028 12.78046 37076 ft 464 kts 110°
2026-05-08 18:24 46.87096 12.87046 37081 ft 463 kts 110°
2026-05-08 18:25 46.85158 12.96044 37063 ft 464 kts 110°
2026-05-08 18:25 46.83217 13.05038 37076 ft 465 kts 110°
2026-05-08 18:26 46.81260 13.14026 37070 ft 464 kts 110°
2026-05-08 18:26 46.79310 13.23014 37083 ft 464 kts 110°
2026-05-08 18:27 46.77679 13.30477 37082 ft 464 kts 110°
2026-05-08 18:27 46.75384 13.40916 37091 ft 465 kts 110°
2026-05-08 18:28 46.73404 13.49896 37080 ft 465 kts 110°
2026-05-08 18:28 46.71416 13.58853 37067 ft 464 kts 111°
2026-05-08 18:29 46.69419 13.67798 37076 ft 464 kts 111°
2026-05-08 18:29 46.67414 13.76754 37073 ft 465 kts 111°
2026-05-08 18:30 46.65414 13.85689 37066 ft 464 kts 111°
2026-05-08 18:30 46.63397 13.94625 37055 ft 465 kts 111°
2026-05-08 18:31 46.61365 14.03565 37057 ft 465 kts 111°
2026-05-08 18:31 46.59336 14.12493 37061 ft 465 kts 111°
2026-05-08 18:32 46.57300 14.21428 37068 ft 465 kts 111°
2026-05-08 18:32 46.55266 14.30280 37052 ft 465 kts 111°
2026-05-08 18:33 46.53218 14.39197 37058 ft 465 kts 111°
2026-05-08 18:33 46.51162 14.48093 37063 ft 465 kts 111°
2026-05-08 18:34 46.49094 14.56972 37064 ft 464 kts 111°
2026-05-08 18:34 46.47020 14.65861 37058 ft 465 kts 112°
2026-05-08 18:35 46.44953 14.74703 37060 ft 464 kts 112°
2026-05-08 18:35 46.42876 14.83548 37064 ft 464 kts 112°
2026-05-08 18:36 46.40786 14.92393 37067 ft 464 kts 112°
2026-05-08 18:36 46.38686 15.01232 37043 ft 463 kts 112°
2026-05-08 18:37 46.36590 15.10047 37060 ft 463 kts 112°
2026-05-08 18:37 46.34489 15.18852 37068 ft 463 kts 112°
2026-05-08 18:38 46.32383 15.27643 37065 ft 462 kts 112°
2026-05-08 18:38 46.30268 15.36430 37066 ft 462 kts 112°
2026-05-08 18:39 46.28144 15.45202 37054 ft 462 kts 112°
2026-05-08 18:39 46.26020 15.53976 37053 ft 463 kts 112°
2026-05-08 18:40 46.23884 15.62743 37058 ft 463 kts 112°
2026-05-08 18:40 46.21740 15.71516 37059 ft 463 kts 112°
2026-05-08 18:41 46.19603 15.80224 37062 ft 463 kts 112°
2026-05-08 18:41 46.17443 15.88970 37058 ft 463 kts 112°
2026-05-08 18:42 46.15277 15.97711 37059 ft 463 kts 112°
2026-05-08 18:42 46.13104 16.06456 37059 ft 463 kts 112°
2026-05-08 18:43 46.10932 16.15199 37043 ft 463 kts 112°
2026-05-08 18:43 46.08750 16.23923 37047 ft 463 kts 112°
2026-05-08 18:44 46.06568 16.32594 37052 ft 463 kts 112°
2026-05-08 18:44 46.04370 16.41307 37053 ft 463 kts 113°
2026-05-08 18:45 46.02162 16.50011 37040 ft 463 kts 113°
2026-05-08 18:45 45.99949 16.58714 37044 ft 463 kts 113°
2026-05-08 18:46 45.97727 16.67435 37041 ft 463 kts 113°
2026-05-08 18:46 45.95507 16.76126 37051 ft 464 kts 113°
2026-05-08 18:47 45.93649 16.83350 37036 ft 463 kts 113°
2026-05-08 18:47 45.91407 16.92028 37041 ft 463 kts 113°
2026-05-08 18:48 45.89162 17.00692 37040 ft 463 kts 113°
2026-05-08 18:48 45.86916 17.09346 37048 ft 462 kts 113°
2026-05-08 18:49 45.84668 17.17997 37040 ft 462 kts 113°
2026-05-08 18:49 45.82409 17.26621 37050 ft 462 kts 113°
2026-05-08 18:50 45.80153 17.35172 37052 ft 462 kts 113°
2026-05-08 18:50 45.77865 17.43830 37054 ft 461 kts 113°
2026-05-08 18:51 45.75612 17.52371 37053 ft 461 kts 114°
2026-05-08 18:51 45.73332 17.60978 37044 ft 461 kts 113°
2026-05-08 18:52 45.71060 17.69510 37046 ft 461 kts 114°
2026-05-08 18:52 45.68761 17.78093 37049 ft 461 kts 114°
2026-05-08 18:53 45.66459 17.86657 37048 ft 461 kts 114°
2026-05-08 18:53 45.64148 17.95210 37043 ft 461 kts 114°
2026-05-08 18:54 45.61843 18.03749 37049 ft 460 kts 114°
2026-05-08 18:54 45.59951 18.12487 37043 ft 464 kts 101°
2026-05-08 18:55 45.58607 18.26181 37030 ft 464 kts 100°
2026-05-08 18:56 45.57701 18.35245 37037 ft 464 kts 100°
2026-05-08 18:56 45.56780 18.44350 37043 ft 463 kts 100°
2026-05-08 18:57 45.55852 18.53460 37041 ft 463 kts 100°
2026-05-08 18:57 45.54915 18.62554 37041 ft 463 kts 100°
2026-05-08 18:58 45.53970 18.71652 37039 ft 463 kts 100°
2026-05-08 18:58 45.53025 18.80734 37043 ft 463 kts 100°
2026-05-08 18:59 45.52073 18.89824 37044 ft 463 kts 100°
2026-05-08 18:59 45.51120 18.98879 37044 ft 462 kts 100°
2026-05-08 19:00 45.50313 19.06424 37033 ft 462 kts 101°
2026-05-08 19:00 45.49172 19.16995 37038 ft 462 kts 101°
2026-05-08 19:01 45.48196 19.25992 37043 ft 462 kts 101°
2026-05-08 19:01 45.47209 19.35031 37042 ft 462 kts 101°
2026-05-08 19:02 45.46218 19.44066 37040 ft 461 kts 101°
2026-05-08 19:02 45.45223 19.53093 37040 ft 461 kts 101°
2026-05-08 19:03 45.44218 19.62116 37040 ft 461 kts 101°
2026-05-08 19:03 45.43201 19.71143 37040 ft 461 kts 101°
2026-05-08 19:04 45.42176 19.80156 37027 ft 461 kts 101°
2026-05-08 19:04 45.41147 19.89174 37032 ft 461 kts 101°
2026-05-08 19:05 45.40111 19.98191 37033 ft 461 kts 101°
2026-05-08 19:05 45.39074 20.07132 37040 ft 461 kts 101°
2026-05-08 19:06 45.38024 20.16155 37020 ft 461 kts 101°
2026-05-08 19:06 45.36970 20.25157 37019 ft 462 kts 101°
2026-05-08 19:07 45.35908 20.34160 37023 ft 462 kts 101°
2026-05-08 19:07 45.34837 20.43161 37023 ft 462 kts 101°
2026-05-08 19:08 45.33751 20.52156 37025 ft 462 kts 102°
2026-05-08 19:08 45.32664 20.61146 37025 ft 461 kts 101°
2026-05-08 19:09 45.31577 20.70133 37030 ft 461 kts 101°
2026-05-08 19:09 45.30479 20.79093 37027 ft 460 kts 102°
2026-05-08 19:10 45.29372 20.88039 37031 ft 460 kts 102°
2026-05-08 19:10 45.28262 20.96992 37027 ft 459 kts 102°
2026-05-08 19:11 45.27149 21.05918 37036 ft 459 kts 102°
2026-05-08 19:11 45.26017 21.14839 37040 ft 458 kts 105°
2026-05-08 19:12 45.23895 21.23228 37037 ft 455 kts 114°
2026-05-08 19:12 45.21572 21.31579 37044 ft 455 kts 114°
2026-05-08 19:13 45.19246 21.39919 37047 ft 455 kts 114°
2026-05-08 19:13 45.16924 21.48271 37039 ft 455 kts 114°
2026-05-08 19:14 45.14594 21.56609 37039 ft 455 kts 114°
2026-05-08 19:14 45.12255 21.64931 37024 ft 454 kts 114°
2026-05-08 19:15 45.09915 21.73240 37046 ft 454 kts 114°
2026-05-08 19:15 45.07576 21.81532 37045 ft 454 kts 114°
2026-05-08 19:16 45.05224 21.89813 37049 ft 454 kts 114°
2026-05-08 19:16 45.02865 21.98087 37045 ft 453 kts 114°
2026-05-08 19:17 45.00509 22.06349 37048 ft 453 kts 114°
2026-05-08 19:17 44.98146 22.14605 37050 ft 452 kts 114°
2026-05-08 19:18 44.95796 22.22767 37055 ft 452 kts 114°
2026-05-08 19:18 44.93431 22.30978 37050 ft 451 kts 114°
2026-05-08 19:19 44.91058 22.39174 37050 ft 451 kts 114°
2026-05-08 19:19 44.88679 22.47354 37050 ft 450 kts 114°
2026-05-08 19:20 44.86298 22.55522 37044 ft 450 kts 114°
2026-05-08 19:20 44.83911 22.63678 37029 ft 450 kts 114°
2026-05-08 19:21 44.81522 22.71823 37032 ft 450 kts 114°
2026-05-08 19:21 44.79138 22.79952 37031 ft 449 kts 114°
2026-05-08 19:22 44.76741 22.88076 37031 ft 449 kts 114°
2026-05-08 19:22 44.74336 22.96186 37028 ft 449 kts 114°
2026-05-08 19:23 44.71924 23.04300 37028 ft 449 kts 114°
2026-05-08 19:23 44.69510 23.12397 37027 ft 449 kts 114°
2026-05-08 19:24 44.67103 23.20444 37031 ft 449 kts 114°
2026-05-08 19:24 44.64684 23.28541 37017 ft 449 kts 114°
2026-05-08 19:25 44.62258 23.36631 37017 ft 449 kts 114°
2026-05-08 19:25 44.59820 23.44703 37016 ft 449 kts 114°
2026-05-08 19:26 44.57373 23.52754 37013 ft 449 kts 114°
2026-05-08 19:26 44.54919 23.60821 37018 ft 449 kts 114°
2026-05-08 19:27 44.52468 23.68870 37022 ft 449 kts 114°
2026-05-08 19:27 44.50009 23.76916 37031 ft 449 kts 114°
2026-05-08 19:28 44.47548 23.84948 37037 ft 448 kts 114°
2026-05-08 19:28 44.45083 23.92962 36855 ft 447 kts 114°
2026-05-08 19:28 44.43857 23.96950 36626 ft 448 kts 114°
2026-05-08 19:29 44.42622 24.00959 36362 ft 449 kts 114°
2026-05-08 19:29 44.41397 24.04923 36111 ft 449 kts 114°
2026-05-08 19:29 44.40156 24.08930 35849 ft 449 kts 115°
2026-05-08 19:29 44.38911 24.12940 35596 ft 448 kts 115°
2026-05-08 19:30 44.37669 24.16927 35356 ft 448 kts 115°
2026-05-08 19:30 44.36424 24.20920 35101 ft 448 kts 115°
2026-05-08 19:30 44.35176 24.24916 34848 ft 448 kts 115°
2026-05-08 19:30 44.33930 24.28900 34604 ft 447 kts 115°
2026-05-08 19:31 44.32685 24.32877 34360 ft 447 kts 115°
2026-05-08 19:31 44.31438 24.36864 34103 ft 447 kts 115°
2026-05-08 19:31 44.30193 24.40839 33791 ft 447 kts 115°
2026-05-08 19:31 44.28947 24.44814 33463 ft 447 kts 115°
2026-05-08 19:32 44.27698 24.48790 33141 ft 448 kts 115°
2026-05-08 19:32 44.26445 24.52767 32829 ft 448 kts 115°
2026-05-08 19:32 44.25189 24.56746 32517 ft 448 kts 115°
2026-05-08 19:32 44.23932 24.60727 32194 ft 449 kts 115°
2026-05-08 19:33 44.22672 24.64712 31893 ft 449 kts 115°
2026-05-08 19:33 44.21833 24.67365 31687 ft 450 kts 115°
2026-05-08 19:33 44.20156 24.72650 31285 ft 451 kts 115°
2026-05-08 19:33 44.18886 24.76650 31025 ft 451 kts 115°
2026-05-08 19:34 44.17615 24.80651 30993 ft 452 kts 115°
2026-05-08 19:34 44.15476 24.87356 31004 ft 453 kts 115°
2026-05-08 19:35 44.12918 24.95356 30999 ft 452 kts 115°
2026-05-08 19:35 44.10367 25.03291 31002 ft 452 kts 116°
2026-05-08 19:36 44.07793 25.11271 31002 ft 452 kts 116°
2026-05-08 19:36 44.05223 25.19227 31000 ft 451 kts 116°
2026-05-08 19:37 44.02645 25.27191 30995 ft 451 kts 116°
2026-05-08 19:37 44.00060 25.35149 30997 ft 451 kts 116°
2026-05-08 19:38 43.97222 25.42895 30989 ft 449 kts 128°
2026-05-08 19:38 43.93142 25.49411 30988 ft 447 kts 133°
2026-05-08 19:39 43.89007 25.55859 30493 ft 445 kts 133°
2026-05-08 19:39 43.86986 25.59019 30246 ft 431 kts 133°
2026-05-08 19:39 43.85027 25.62073 29992 ft 420 kts 133°
2026-05-08 19:39 43.83107 25.65065 29705 ft 409 kts 133°
2026-05-08 19:40 43.81236 25.67973 29425 ft 400 kts 133°
2026-05-08 19:40 43.79400 25.70818 29150 ft 394 kts 133°
2026-05-08 19:40 43.77577 25.73639 28884 ft 391 kts 133°
2026-05-08 19:40 43.75768 25.76437 28605 ft 389 kts 133°
2026-05-08 19:41 43.73968 25.79217 28335 ft 387 kts 133°
2026-05-08 19:41 43.72181 25.81975 28072 ft 385 kts 133°
2026-05-08 19:41 43.70394 25.84727 27810 ft 384 kts 133°
2026-05-08 19:41 43.68607 25.87480 27540 ft 382 kts 133°
2026-05-08 19:42 43.66832 25.90210 27291 ft 381 kts 133°
2026-05-08 19:42 43.65086 25.92892 27042 ft 380 kts 133°
2026-05-08 19:42 43.63318 25.95604 26786 ft 379 kts 133°
2026-05-08 19:42 43.61561 25.98301 26534 ft 377 kts 133°
2026-05-08 19:43 43.59810 26.00990 26287 ft 376 kts 133°
2026-05-08 19:43 43.58066 26.03669 26039 ft 375 kts 133°
2026-05-08 19:43 43.56321 26.06341 25795 ft 373 kts 133°
2026-05-08 19:43 43.54584 26.08993 25553 ft 372 kts 133°
2026-05-08 19:44 43.52848 26.11642 25313 ft 371 kts 133°
2026-05-08 19:44 43.51125 26.14270 25075 ft 370 kts 133°
2026-05-08 19:44 43.49401 26.16901 24836 ft 368 kts 132°
2026-05-08 19:44 43.47686 26.19516 24603 ft 367 kts 133°
2026-05-08 19:45 43.45973 26.22124 24374 ft 366 kts 132°
2026-05-08 19:45 43.44276 26.24706 24137 ft 363 kts 133°
2026-05-08 19:45 43.42583 26.27278 23916 ft 362 kts 133°
2026-05-08 19:45 43.40894 26.29837 23698 ft 361 kts 133°
2026-05-08 19:46 43.39224 26.32364 23438 ft 359 kts 133°
2026-05-08 19:46 43.37530 26.34928 23170 ft 358 kts 133°
2026-05-08 19:46 43.34236 26.39929 22533 ft 353 kts 133°
2026-05-08 19:47 43.32573 26.42448 22213 ft 350 kts 133°
2026-05-08 19:47 43.30940 26.44915 21905 ft 347 kts 133°
2026-05-08 19:47 43.29452 26.47505 21597 ft 345 kts 120°
2026-05-08 19:47 43.28459 26.50444 21283 ft 344 kts 115°
2026-05-08 19:48 43.27509 26.53456 20987 ft 342 kts 115°
2026-05-08 19:48 43.26568 26.56439 20693 ft 340 kts 115°
2026-05-08 19:48 43.25631 26.59411 20395 ft 338 kts 115°
2026-05-08 19:48 43.24699 26.62366 20102 ft 336 kts 115°
2026-05-08 19:49 43.23768 26.65307 19812 ft 334 kts 115°
2026-05-08 19:49 43.22843 26.68230 19529 ft 332 kts 115°
2026-05-08 19:49 43.21926 26.71129 19240 ft 330 kts 115°
2026-05-08 19:49 43.21014 26.74010 18960 ft 329 kts 115°
2026-05-08 19:50 43.20103 26.76888 18691 ft 327 kts 115°
2026-05-08 19:50 43.19200 26.79739 18461 ft 326 kts 116°
2026-05-08 19:50 43.18298 26.82585 18206 ft 326 kts 116°
2026-05-08 19:50 43.17393 26.85426 17938 ft 324 kts 116°
2026-05-08 19:51 43.16491 26.88250 17676 ft 323 kts 116°
2026-05-08 19:51 43.15594 26.91056 17411 ft 321 kts 116°
2026-05-08 19:51 43.14709 26.93820 17153 ft 319 kts 116°
2026-05-08 19:51 43.13821 26.96592 16884 ft 317 kts 116°
2026-05-08 19:52 43.12940 26.99346 16654 ft 315 kts 116°
2026-05-08 19:52 43.12058 27.02104 16391 ft 313 kts 116°
2026-05-08 19:52 43.11188 27.04816 16135 ft 311 kts 116°
2026-05-08 19:52 43.10316 27.07520 15888 ft 310 kts 116°
2026-05-08 19:53 43.09449 27.10215 15633 ft 308 kts 116°
2026-05-08 19:53 43.08590 27.12893 15387 ft 307 kts 116°
2026-05-08 19:53 43.07732 27.15561 15146 ft 305 kts 116°
2026-05-08 19:53 43.06879 27.18212 14904 ft 304 kts 116°
2026-05-08 19:54 43.06028 27.20853 14665 ft 302 kts 116°
2026-05-08 19:54 43.05194 27.23438 14428 ft 300 kts 116°
2026-05-08 19:54 43.04354 27.26043 14192 ft 299 kts 116°
2026-05-08 19:54 43.03517 27.28632 13957 ft 297 kts 116°
2026-05-08 19:55 43.02682 27.31212 13707 ft 295 kts 116°
2026-05-08 19:55 43.01854 27.33766 13436 ft 294 kts 116°
2026-05-08 19:55 43.01024 27.36320 13189 ft 293 kts 116°
2026-05-08 19:55 43.00202 27.38846 12950 ft 288 kts 116°
2026-05-08 19:56 42.99393 27.41332 12638 ft 285 kts 116°
2026-05-08 19:56 42.98589 27.43805 12289 ft 283 kts 116°
2026-05-08 19:56 42.97793 27.46253 11921 ft 282 kts 116°
2026-05-08 19:56 42.96992 27.48714 11517 ft 284 kts 116°
2026-05-08 19:57 42.96192 27.51170 11142 ft 283 kts 116°
2026-05-08 19:57 42.95392 27.53621 10781 ft 282 kts 116°
2026-05-08 19:57 42.94595 27.56066 10414 ft 281 kts 116°
2026-05-08 19:57 42.93798 27.58496 10041 ft 281 kts 116°
2026-05-08 19:58 42.93001 27.60929 9637 ft 280 kts 116°
2026-05-08 19:58 42.92208 27.63349 9252 ft 279 kts 116°
2026-05-08 19:58 42.91415 27.65759 8870 ft 277 kts 117°
2026-05-08 19:58 42.90629 27.68151 8473 ft 276 kts 116°
2026-05-08 19:59 42.89848 27.70532 8077 ft 274 kts 117°
2026-05-08 19:59 42.89080 27.72869 7685 ft 273 kts 117°
2026-05-08 19:59 42.88289 27.75263 7262 ft 273 kts 118°
2026-05-08 19:59 42.87277 27.77425 6836 ft 270 kts 133°
2026-05-08 20:00 42.85986 27.79241 6364 ft 271 kts 137°
2026-05-08 20:00 42.84684 27.81027 5889 ft 262 kts 138°
2026-05-08 20:00 42.83220 27.82442 5402 ft 258 kts 161°
2026-05-08 20:00 42.81474 27.82745 4947 ft 254 kts 189°
2026-05-08 20:01 42.79835 27.81852 4595 ft 250 kts 215°
2026-05-08 20:01 42.78593 27.80297 4345 ft 243 kts 223°
2026-05-08 20:01 42.77415 27.78698 4104 ft 234 kts 223°
2026-05-08 20:01 42.76285 27.77179 4004 ft 223 kts 223°
2026-05-08 20:02 42.75187 27.75711 4010 ft 221 kts 223°
2026-05-08 20:02 42.74092 27.74249 4003 ft 220 kts 223°
2026-05-08 20:02 42.72998 27.72788 4012 ft 221 kts 223°
2026-05-08 20:02 42.71907 27.71331 3842 ft 216 kts 223°
2026-05-08 20:03 42.70845 27.69915 3596 ft 212 kts 223°
2026-05-08 20:03 42.69801 27.68522 3335 ft 209 kts 223°
2026-05-08 20:03 42.68769 27.67148 3062 ft 206 kts 224°
2026-05-08 20:03 42.67754 27.65795 2792 ft 203 kts 224°
2026-05-08 20:04 42.66758 27.64469 2525 ft 196 kts 224°
2026-05-08 20:04 42.65806 27.63202 2264 ft 185 kts 225°
2026-05-08 20:04 42.64918 27.62021 2053 ft 171 kts 225°
2026-05-08 20:04 42.64108 27.60944 1802 ft 154 kts 225°
2026-05-08 20:05 42.63380 27.59977 1622 ft 141 kts 225°
2026-05-08 20:05 42.62701 27.59074 1424 ft 134 kts 225°
2026-05-08 20:05 42.62044 27.58203 1263 ft 131 kts 225°
2026-05-08 20:05 42.61396 27.57339 1101 ft 130 kts 224°
2026-05-08 20:06 42.60744 27.56472 913 ft 132 kts 224°
2026-05-08 20:06 42.60085 27.55595 696 ft 132 kts 225°
2026-05-08 20:06 42.59424 27.54708 522 ft 135 kts 223°
2026-05-08 20:06 42.58754 27.53824 359 ft 134 kts 223°
2026-05-08 20:07 42.58095 27.52954 212 ft 134 kts 221°
2026-05-08 20:07 42.57482 27.52151 173 ft 102 kts 224°
2026-05-08 20:07 42.57149 27.51705 174 ft 45 kts 224°
2026-05-08 20:07 42.57030 27.51552 176 ft 13 kts 224°
2026-05-08 20:08 42.56959 27.51458 174 ft 16 kts 224°
2026-05-08 20:08 42.56868 27.51434 174 ft 12 kts 152°
2026-05-08 20:08 42.56827 27.51487 174 ft 7 kts 135°
2026-05-08 20:08 42.56811 27.51508 174 ft 6 kts 134°
2026-05-08 20:09 42.56785 27.51545 173 ft 5 kts 134°
2026-05-08 20:09 42.56764 27.51575 173 ft 4 kts 134°
2026-05-08 20:09 42.56749 27.51594 173 ft 3 kts 134°
2026-05-08 20:09 42.56739 27.51609 174 ft 5 kts 134°
2026-05-08 20:10 42.56694 27.51604 174 ft 10 kts 221°
2026-05-08 20:10 42.56645 27.51534 174 ft 10 kts 227°
2026-05-08 20:10 42.56603 27.51494 173 ft 6 kts 189°
2026-05-08 20:10 42.56582 27.51496 173 ft 1 kts 170°
2026-05-08 20:11 42.56577 27.51497 173 ft 2 kts 170°
2026-05-08 20:11 42.56569 27.51499 173 ft 2 kts 170°
2026-05-08 20:11 42.56567 27.51500 173 ft 0 kts 170°